FW9748 Weather Reports


Display with metric or nautical units.
time (UTC)temp
F
wind
direction
speed
MPH
gust
MPH
rain 1hr
in
rain 24hr
in
rain mn
in
humidity
%
barometer
mb
20260906143805 79 23 3.0 6.0 0.00 0.00 0.00 78 1014.9
20260906143305 79 68 3.0 7.0 0.00 0.00 0.00 80 1014.9
20260906142805 79 138 4.0 6.0 0.00 0.00 0.00 80 1014.6
20260906142306 79 81 3.0 5.0 0.00 0.00 0.00 80 1014.9
20260906141806 79 162 4.0 5.0 0.00 0.00 0.00 80 1014.9
20260906141305 78 90 3.0 7.0 0.00 0.00 0.00 81 1014.6
20260906140305 79 84 2.0 5.0 0.00 0.00 0.00 80 1014.9
20260906135306 78 34 2.0 2.0 0.00 0.00 0.00 81 1014.6
20260906134805 78 29 2.0 3.0 0.00 0.00 0.00 82 1014.9
20260906134305 77 52 2.0 5.0 0.00 0.00 0.00 83 1014.2
20260906133805 77 54 2.0 6.0 0.00 0.00 0.00 82 1014.8
20260906133305 78 54 2.0 2.0 0.00 0.00 0.00 82 1014.6
20260906132805 78 66 2.0 2.0 0.00 0.00 0.00 81 1014.9
20260906132307 78 22 2.0 3.0 0.00 0.00 0.00 82 1014.9
20260906131805 77 57 2.0 3.0 0.00 0.00 0.00 83 1014.9
20260906131305 76 46 1.0 2.0 0.00 0.00 0.00 84 1014.9
20260906130805 75 79 2.0 2.0 0.00 0.00 0.00 85 1014.9
20260906130305 75 81 2.0 5.0 0.00 0.00 0.00 87 1014.9
20260906125805 75 62 3.0 6.0 0.00 0.00 0.00 87 1014.6
20260906125306 75 70 1.0 2.0 0.00 0.00 0.00 85 1014.9
20260906124805 75 348 2.0 3.0 0.00 0.00 0.00 87 1014.9
20260906124305 75 54 2.0 2.0 0.00 0.00 0.00 88 1014.9
20260906122306 74 93 1.0 6.0 0.00 0.00 0.00 89 1014.5
20260906121805 74 93 3.0 6.0 0.00 0.00 0.00 90 1014.3
20260906121304 74 93 3.0 5.0 0.00 0.00 0.00 90 1014.5
20260906120805 73 93 1.0 2.0 0.00 0.00 0.00 89 1014.2
20260906120305 73 93 1.0 2.0 0.00 0.00 0.00 90 1014.2
20260906115805 73 93 2.0 2.0 0.00 0.00 0.00 90 1014.2
20260906115306 73 93 1.0 2.0 0.00 0.00 0.00 90 1014.2
20260906114804 73 93 2.0 2.0 0.00 0.00 0.00 90 1014.2
20260906114305 73 93 2.0 2.0 0.00 0.00 0.00 90 1013.9
20260906113805 73 93 2.0 2.0 0.00 0.00 0.00 90 1013.9
20260906113304 74 93 1.0 3.0 0.00 0.00 0.00 89 1013.9
20260906112805 74 93 2.0 3.0 0.00 0.00 0.00 90 1013.9
20260906111805 74 93 2.0 2.0 0.00 0.00 0.00 90 1013.9
20260906111305 74 93 1.0 2.0 0.00 0.00 0.00 90 1013.9
20260906110305 74 93 1.0 2.0 0.00 0.00 0.00 90 1013.9
20260906105805 74 93 2.0 2.0 0.00 0.00 0.00 90 1013.9
20260906105306 74 93 1.0 2.0 0.00 0.00 0.00 90 1013.9
20260906104804 74 93 2.0 2.0 0.00 0.00 0.00 89 1013.5
20260906104305 74 93 1.0 2.0 0.00 0.00 0.00 90 1013.9
20260906103804 75 93 1.0 2.0 0.00 0.00 0.00 89 1013.5
20260906103305 75 93 2.0 2.0 0.00 0.00 0.00 89 1013.5
20260906101805 75 93 1.0 2.0 0.00 0.00 0.00 90 1013.5
20260906101304 75 93 1.0 2.0 0.00 0.00 0.00 90 1013.2
20260906100805 75 93 1.0 1.0 0.00 0.00 0.00 89 1013.5
20260906100304 76 93 2.0 5.0 0.00 0.00 0.00 89 1013.2
20260906095804 76 93 1.0 5.0 0.00 0.00 0.00 89 1013.5
20260906095306 76 93 1.0 2.0 0.00 0.00 0.00 89 1013.2
20260906094805 76 93 2.0 2.0 0.00 0.00 0.00 89 1013.2
20260906094304 76 93 1.0 3.0 0.00 0.00 0.00 89 1012.9
20260906093805 76 93 2.0 3.0 0.00 0.00 0.00 89 1012.9
20260906093305 76 93 2.0 2.0 0.00 0.00 0.00 89 1013.2
20260906092306 76 93 2.0 3.0 0.00 0.00 0.00 89 1012.9
20260906091804 77 93 2.0 5.0 0.00 0.00 0.00 88 1013.2
20260906091305 77 93 2.0 2.0 0.00 0.00 0.00 88 1013.0
20260906090805 77 93 2.0 3.0 0.00 0.00 0.00 88 1012.9
20260906090304 77 93 2.0 5.0 0.00 0.00 0.00 88 1012.9
20260906085805 77 93 2.0 2.0 0.00 0.00 0.00 88 1012.9
20260906085306 78 93 2.0 3.0 0.00 0.00 0.00 88 1013.2
20260906084805 78 93 2.0 6.0 0.00 0.00 0.00 87 1012.5
20260906083804 78 93 3.0 6.0 0.00 0.00 0.00 86 1012.9
20260906083304 78 66 3.0 6.0 0.00 0.00 0.00 87 1012.5
20260906082805 78 42 2.0 3.0 0.00 0.00 0.00 87 1012.8
20260906081805 79 58 4.0 6.0 0.00 0.00 0.00 88 1012.2
20260906081304 79 155 2.0 5.0 0.00 0.00 0.00 88 1012.5
20260906080804 79 85 2.0 5.0 0.00 0.00 0.00 88 1012.5
20260906075804 79 108 2.0 3.0 0.00 0.00 0.00 87 1012.5
20260906075306 80 120 2.0 3.0 0.00 0.00 0.00 87 1012.5
20260906074805 80 132 4.0 5.0 0.00 0.00 0.00 87 1012.5
20260906073804 80 92 2.0 6.0 0.00 0.00 0.00 87 1012.9
20260906073304 80 89 2.0 3.0 0.00 0.00 0.00 86 1012.5
20260906072804 80 110 3.0 5.0 0.00 0.00 0.00 86 1012.9
20260906072306 80 62 2.0 5.0 0.00 0.00 0.00 87 1012.9
20260906071805 80 115 4.0 6.0 0.00 0.00 0.00 87 1012.9
20260906071304 81 125 3.0 6.0 0.00 0.00 0.00 87 1012.8
20260906070805 81 65 3.0 3.0 0.00 0.00 0.00 86 1012.5
20260906070304 81 113 3.0 5.0 0.00 0.00 0.00 86 1012.9
20260906065805 81 102 2.0 3.0 0.00 0.00 0.00 86 1012.5
20260906064804 81 119 2.0 3.0 0.00 0.00 0.00 85 1012.5
20260906064305 81 88 2.0 2.0 0.00 0.00 0.00 84 1012.7
20260906063804 82 71 2.0 2.0 0.00 0.00 0.00 84 1012.9
20260906062804 82 66 2.0 2.0 0.00 0.00 0.00 83 1012.5
20260906061805 82 72 1.0 3.0 0.00 0.00 0.00 82 1012.9
20260906061304 82 54 2.0 2.0 0.00 0.00 0.00 81 1012.5
20260906060804 82 43 2.0 2.0 0.00 0.00 0.00 81 1012.5
20260906060304 82 28 2.0 2.0 0.00 0.00 0.00 81 1012.9
20260906055804 82 28 0.0 1.0 0.00 0.00 0.00 81 1012.8
20260906055306 83 28 0.0 1.0 0.00 0.00 0.00 80 1012.5
20260906054804 83 28 1.0 1.0 0.00 0.00 0.00 80 1012.9
20260906054304 83 28 1.0 2.0 0.00 0.00 0.00 79 1012.5
20260906053804 83 28 1.0 1.0 0.00 0.00 0.00 79 1012.9
20260906052804 83 28 1.0 1.0 0.00 0.00 0.00 79 1012.5
20260906052306 83 28 0.0 0.0 0.00 0.00 0.00 78 1012.5
20260906050925 83 28 0.0 0.0 0.00 0.00 0.00 78 1012.5
20260906050304 83 28 0.0 1.0 0.00 0.00 0.00 77 1012.6
20260906045805 83 28 0.0 0.0 0.00 0.00 0.00 78 1012.8
20260906045306 83 28 0.0 0.0 0.00 0.00 0.00 78 1012.5
20260906044804 84 28 0.0 1.0 0.00 0.00 0.00 75 1012.5
20260906044304 85 28 1.0 1.0 0.00 0.00 0.00 75 1012.5
20260906043804 84 28 1.0 2.0 0.00 0.00 0.00 75 1012.2
20260906043304 84 28 1.0 1.0 0.00 0.00 0.00 75 1012.2
20260906042805 84 28 1.0 1.0 0.00 0.00 0.00 75 1012.2
20260906042306 84 28 1.0 2.0 0.00 0.00 0.00 74 1012.2
20260906041804 84 28 1.0 1.0 0.00 0.00 0.00 74 1012.2
20260906041304 83 28 0.0 0.0 0.00 0.00 0.00 74 1012.2
20260906040304 84 28 0.0 0.0 0.00 0.00 0.00 73 1012.2
20260906034804 84 28 0.0 0.0 0.00 0.00 0.00 70 1012.2
20260906034304 84 28 0.0 0.0 0.00 0.00 0.00 70 1012.2
20260906033804 84 28 0.0 0.0 0.00 0.00 0.00 70 1011.9
20260906033304 84 28 0.0 0.0 0.00 0.00 0.00 70 1012.2
20260906032804 84 28 0.0 0.0 0.00 0.00 0.00 69 1011.9
20260906032306 85 28 0.0 0.0 0.00 0.00 0.00 69 1011.9
20260906031804 85 28 0.0 0.0 0.00 0.00 0.00 68 1011.9
20260906030304 86 28 1.0 1.0 0.00 0.00 0.00 64 1011.5
20260906025804 87 28 1.0 2.0 0.00 0.00 0.00 63 1011.5
20260906025306 87 28 1.0 2.0 0.00 0.00 0.00 63 1011.9
20260906024804 87 26 0.0 0.0 0.00 0.00 0.00 62 1011.5
20260906024304 87 26 0.0 1.0 0.00 0.00 0.00 62 1011.5
20260906023803 87 26 1.0 2.0 0.00 0.00 0.00 61 1011.4
20260906023304 87 26 0.0 2.0 0.00 0.00 0.00 61 1011.2
20260906022805 87 25 1.0 2.0 0.00 0.00 0.00 62 1011.2
20260906022307 87 29 1.0 2.0 0.00 0.00 0.00 62 1011.2
20260906021804 87 30 0.0 0.0 0.00 0.00 0.00 63 1011.2
20260906021304 87 30 0.0 0.0 0.00 0.00 0.00 64 1010.8
20260906020804 87 30 0.0 0.0 0.00 0.00 0.00 63 1011.2
20260906020304 87 30 0.0 0.0 0.00 0.00 0.00 63 1010.8
20260906015803 87 30 0.0 0.0 0.00 0.00 0.00 64 1010.8
20260906015306 87 30 0.0 0.0 0.00 0.00 0.00 63 1010.8
20260906014803 87 30 0.0 1.0 0.00 0.00 0.00 64 1010.5
20260906014304 88 30 1.0 1.0 0.00 0.00 0.00 63 1010.5
20260906013804 88 30 1.0 1.0 0.00 0.00 0.00 64 1010.5
20260906013304 88 30 1.0 1.0 0.00 0.00 0.00 64 1010.5
20260906012803 88 30 1.0 1.0 0.00 0.00 0.00 64 1010.5
20260906012306 88 30 1.0 1.0 0.00 0.00 0.00 64 1010.5
20260906011803 88 34 0.0 1.0 0.00 0.00 0.00 64 1010.5
20260906011304 88 34 0.0 2.0 0.00 0.00 0.00 64 1010.5
20260906010804 89 33 0.0 0.0 0.00 0.00 0.00 64 1010.5
20260906010304 89 35 0.0 1.0 0.00 0.00 0.00 63 1010.2
20260906005804 89 35 1.0 1.0 0.00 0.00 0.00 62 1010.5
20260906005306 89 35 1.0 1.0 0.00 0.00 0.00 63 1010.2
20260906004804 89 35 0.0 1.0 0.00 0.00 0.00 62 1010.0
20260906004304 90 35 1.0 1.0 0.00 0.00 0.00 62 1009.9
20260906003804 90 35 0.0 1.0 0.00 0.00 0.00 62 1010.1
20260906003304 90 52 1.0 2.0 0.00 0.00 0.00 62 1009.8
20260906002804 90 48 2.0 2.0 0.00 0.00 0.00 61 1009.8
20260906002306 91 48 2.0 2.0 0.00 0.00 0.00 60 1010.2
20260906001804 91 40 2.0 3.0 0.00 0.00 0.00 59 1010.2
20260906001304 91 6 2.0 2.0 0.00 0.00 0.00 59 1010.2
20260906000804 91 42 2.0 3.0 0.00 0.00 0.00 58 1010.2
20260906000304 92 61 1.0 3.0 0.00 0.00 0.00 57 1010.2
20260905235806 92 0 3.0 5.0 0.00 0.00 0.00 57 1010.2
20260905235307 92 21 2.0 2.0 0.00 0.00 0.00 56 1010.5
20260905234806 92 21 1.0 1.0 0.00 0.00 0.00 57 1009.8
20260905234306 92 18 1.0 1.0 0.00 0.00 0.00 56 1010.2
20260905233806 92 357 1.0 2.0 0.00 0.00 0.00 55 1010.2
20260905233306 92 19 1.0 5.0 0.00 0.00 0.00 55 1010.5
20260905232806 93 2 1.0 2.0 0.00 0.00 0.00 55 1010.5
20260905232306 93 0 2.0 2.0 0.00 0.00 0.00 54 1010.2
20260905231806 93 24 2.0 2.0 0.00 0.00 0.00 53 1010.2
20260905231306 94 13 2.0 2.0 0.00 0.00 0.00 52 1010.2
20260905230806 94 8 2.0 2.0 0.00 0.00 0.00 52 1010.2
20260905230305 94 3 2.0 3.0 0.00 0.00 0.00 51 1010.5
20260905225806 95 60 2.0 3.0 0.00 0.00 0.00 49 1010.2
20260905225306 95 97 2.0 3.0 0.00 0.00 0.00 48 1010.2
20260905224805 95 1 2.0 3.0 0.00 0.00 0.00 51 1010.5
20260905224306 96 354 2.0 2.0 0.00 0.00 0.00 49 1010.2
20260905223806 97 54 2.0 3.0 0.00 0.00 0.00 48 1009.8
20260905223306 97 54 2.0 2.0 0.00 0.00 0.00 48 1009.8
20260905222806 97 81 3.0 5.0 0.00 0.00 0.00 47 1010.2
20260905222306 97 8 2.0 5.0 0.00 0.00 0.00 47 1009.8
20260905221806 97 104 3.0 5.0 0.00 0.00 0.00 46 1009.9
20260905221306 98 83 3.0 3.0 0.00 0.00 0.00 46 1010.1
20260905220806 98 42 3.0 6.0 0.00 0.00 0.00 45 1009.8
20260905220306 98 357 2.0 5.0 0.00 0.00 0.00 45 1010.2
20260905215805 99 23 2.0 5.0 0.00 0.00 0.00 44 1010.2
20260905214806 100 91 3.0 5.0 0.00 0.00 0.00 44 1010.2
20260905213306 99 31 4.0 6.0 0.00 0.00 0.00 45 1010.2
20260905212806 99 95 2.0 5.0 0.00 0.00 0.00 44 1009.8
20260905212306 100 81 2.0 2.0 0.00 0.00 0.00 42 1009.8
20260905211306 99 89 2.0 5.0 0.00 0.00 0.00 45 1009.8
20260905210806 99 109 3.0 5.0 0.00 0.00 0.00 43 1009.8
20260905205806 100 54 3.0 3.0 0.00 0.00 0.00 42 1009.8
20260905205306 100 118 3.0 3.0 0.00 0.00 0.00 43 1010.5
20260905204306 100 60 2.0 5.0 0.00 0.00 0.00 44 1010.5
20260905203306 101 109 2.0 3.0 0.00 0.00 0.00 43 1010.3
20260905202806 100 73 3.0 5.0 0.00 0.00 0.00 43 1010.5
20260905202306 100 6 3.0 3.0 0.00 0.00 0.00 41 1010.5
20260905201807 102 83 2.0 3.0 0.00 0.00 0.00 40 1010.5
20260905201306 101 10 3.0 5.0 0.00 0.00 0.00 42 1010.5
20260905200806 101 39 3.0 5.0 0.00 0.00 0.00 43 1010.5
20260905200305 102 24 2.0 3.0 0.00 0.00 0.00 42 1010.5
20260905195805 101 90 2.0 3.0 0.00 0.00 0.00 43 1010.5
20260905194805 101 76 3.0 5.0 0.00 0.00 0.00 44 1010.5
20260905193805 102 96 2.0 5.0 0.00 0.00 0.00 41 1010.5
20260905193306 101 352 3.0 6.0 0.00 0.00 0.00 38 1010.5
20260905192806 103 318 3.0 6.0 0.00 0.00 0.00 38 1010.5
20260905192306 102 1 2.0 8.0 0.00 0.00 0.00 37 1010.5
20260905191806 102 356 3.0 6.0 0.00 0.00 0.00 38 1010.8
20260905191306 102 22 1.0 2.0 0.00 0.00 0.00 38 1010.5
20260905190805 101 5 2.0 5.0 0.00 0.00 0.00 41 1010.5
20260905190305 101 354 2.0 3.0 0.00 0.00 0.00 40 1010.8
20260905185806 100 53 2.0 2.0 0.00 0.00 0.00 41 1011.1
20260905185306 100 168 1.0 2.0 0.00 0.00 0.00 43 1010.8
20260905183805 101 23 3.0 5.0 0.00 0.00 0.00 40 1010.8
20260905182306 102 162 2.0 3.0 0.00 0.00 0.00 40 1010.9
20260905181305 102 210 2.0 2.0 0.00 0.00 0.00 43 1011.2
20260905180305 102 114 2.0 3.0 0.00 0.00 0.00 40 1011.5
20260905175806 101 174 2.0 3.0 0.00 0.00 0.00 41 1011.5
20260905175306 100 293 2.0 2.0 0.00 0.00 0.00 43 1011.5
20260905174805 100 218 3.0 3.0 0.00 0.00 0.00 46 1011.9
20260905174305 99 339 2.0 2.0 0.00 0.00 0.00 46 1011.9
20260905173805 99 228 3.0 3.0 0.00 0.00 0.00 47 1011.9
20260905173306 98 263 2.0 3.0 0.00 0.00 0.00 47 1011.5
20260905172805 99 245 2.0 3.0 0.00 0.00 0.00 48 1011.9
20260905171805 100 358 2.0 3.0 0.00 0.00 0.00 48 1011.9
20260905171306 100 24 1.0 2.0 0.00 0.00 0.00 46 1011.9
20260905170805 101 12 2.0 2.0 0.00 0.00 0.00 47 1012.2
20260905170306 100 108 2.0 3.0 0.00 0.00 0.00 48 1012.2
20260905165306 99 234 3.0 3.0 0.00 0.00 0.00 49 1012.2
20260905164806 99 7 2.0 2.0 0.00 0.00 0.00 49 1012.2
20260905164305 98 7 1.0 3.0 0.00 0.00 0.00 48 1012.5
20260905163806 99 353 3.0 3.0 0.00 0.00 0.00 47 1012.6
20260905163305 99 350 2.0 3.0 0.00 0.00 0.00 47 1012.8
20260905162806 98 132 1.0 3.0 0.00 0.00 0.00 47 1012.5
20260905162306 98 335 2.0 2.0 0.00 0.00 0.00 50 1012.9
20260905161805 98 30 2.0 2.0 0.00 0.00 0.00 49 1012.5
20260905161305 97 24 2.0 3.0 0.00 0.00 0.00 50 1012.9
20260905160805 96 102 2.0 2.0 0.00 0.00 0.00 50 1012.5
20260905160305 98 102 0.0 1.0 0.00 0.00 0.00 50 1012.5
20260905155805 97 102 2.0 2.0 0.00 0.00 0.00 50 1012.6
20260905155306 96 101 3.0 3.0 0.00 0.00 0.00 51 1012.9
20260905154805 96 116 1.0 2.0 0.00 0.00 0.00 52 1012.9
20260905154305 95 30 1.0 1.0 0.00 0.00 0.00 53 1012.9
20260905153305 95 60 1.0 2.0 0.00 0.00 0.00 52 1012.9
20260905152805 94 336 2.0 2.0 0.00 0.00 0.00 56 1012.9
20260905152306 93 276 2.0 2.0 0.00 0.00 0.00 56 1012.6
20260905151805 93 240 2.0 2.0 0.00 0.00 0.00 57 1012.8
20260905151305 93 318 1.0 2.0 0.00 0.00 0.00 58 1012.5
20260905150805 92 324 2.0 2.0 0.00 0.00 0.00 60 1012.9
20260905145805 92 324 2.0 2.0 0.00 0.00 0.00 58 1012.9
20260905145306 91 192 1.0 1.0 0.00 0.00 0.00 59 1012.9